Regional Weather Roundup
Issued by NWS Little Rock, AR

Home | Current Version | Previous Version | Graphics & Text | Print | Product List | Glossary On
Versions: 1 2 3 4 5 6 7 8 9 10 11 12 13 14 15 16 17 18 19 20 21 22 23 24 25 26 27 28 29 30 31 32 33 34 35 36 37 38 39 40 41 42 43 44 45 46 47 48 49 50
000
ASUS44 KLZK 290905
RWRLZK

WEATHER ROUNDUP FOR ARKANSAS
NATIONAL WEATHER SERVICE LITTLE ROCK AR
300 AM CST THU JAN 29 2015

NOTE: "FAIR" INDICATES FEW OR NO CLOUDS BELOW 12,000 FEET WITH NO
SIGNIFICANT WEATHER AND/OR OBSTRUCTIONS TO VISIBILITY.

ARZ001-003-010-029-291000-
NORTHWEST ARKANSAS

CITY           SKY/WX    TMP DP  RH WIND       PRES   REMARKS
FAYETTEVILLE   CLOUDY    59  41  51 W14       30.00R
FORT SMITH     CLEAR     47  41  80 NE5       30.00R
HARRISON       CLOUDY    63  41  44 W18G26    29.93R
BENTONVILLE    MOCLDY    57  37  47 NW8       30.01R
ROGERS         MOCLDY    58  39  49 NW15      30.00R
SILOAM SPGS    MOCLDY   N/A N/A N/A NW12      30.02R
HIGHFILL       MOCLDY    59  37  44 NW12G18   30.00R
$$

ARZ004-005-016-291000-
NORTH CENTRAL ARKANSAS

CITY           SKY/WX    TMP DP  RH WIND       PRES   REMARKS
BATESVILLE     CLOUDY    55  41  58 SW13G22   29.94F
FLIPPIN        CLOUDY    61  41  48 SW12      29.92R
MTN HOME       CLOUDY    59  43  55 W6        29.92R
$$

ARZ040-041-291000-
WEST CENTRAL ARKANSAS

CITY           SKY/WX    TMP DP  RH WIND       PRES   REMARKS
MENA           PTCLDY    61  45  55 W7        30.04F
MOUNT IDA      PTCLDY    64  43  46 VRB7G17   30.00S
$$

ARZ009-017-025-026-028-291000-
NORTHEAST ARKANSAS

CITY           SKY/WX    TMP DP  RH WIND       PRES   REMARKS
CORNING        FAIR      54  41  62 SW22G28   29.92S
JONESBORO      CLOUDY    54  42  64 SW22G29   29.95F
NEWPORT        CLOUDY    55  43  64 S22G28    29.97F
WALNUT RIDGE   MOCLDY    52  39  62 S18       29.92S
BLYTHEVILLE    CLOUDY    56  41  57 S16G28    29.97F
$$

ARZ022-023-033-042-044-291000-
CENTRAL ARKANSAS

CITY           SKY/WX    TMP DP  RH WIND       PRES   REMARKS
LITTLE ROCK    MOCLDY    58  40  51 SW18      30.02R
N LITTLE ROCK    N/A     58  45  63 SW14G23   30.02R
JACKSONVILLE   MOCLDY    56  42  59 W6        30.02R
SEARCY         CLOUDY    50  42  74 S8        30.01F
HOT SPRINGS    PTCLDY    59  44  57 SW7       30.05S
RUSSELLVILLE   PTCLDY    44  39  82 CALM      29.97S
CLINTON        FAIR      39  37  93 CALM      30.00S
$$

ARZ036-291000-
EAST ARKANSAS

CITY           SKY/WX    TMP DP  RH WIND       PRES   REMARKS
WEST MEMPHIS   CLOUDY    55  41  59 S14G26    30.01F
$$

ARZ050-053-066-070-073-291000-
SOUTHWEST ARKANSAS

CITY           SKY/WX    TMP DP  RH WIND       PRES   REMARKS
ARKADELPHIA    FAIR      45  44  96 CALM      30.08R
CAMDEN         PTCLDY    55  41  58 MISG      30.08S
TEXARKANA      PTCLDY    57  46  66 SW14      30.07R
EL DORADO      PTCLDY    55  45  68 S10       30.09F
DE QUEEN       PTCLDY    43  41  93 E3        30.05R
$$

ARZ056-057-069-291000-
SOUTHEAST ARKANSAS

CITY           SKY/WX    TMP DP  RH WIND       PRES   REMARKS
PINE BLUFF     CLOUDY    57  42  57 SW14      30.05F
STUTTGART      CLOUDY    57  43  58 S18       30.03F
MONTICELLO     MOCLDY    58  42  55 SW12      30.09S

$$




USA.gov is the U.S. government's official web portal to all federal, state and local government web resources and services.